Other Public Products
Issued by NWS Grand Forks, ND

Home | Current Version | Previous Version | Graphics & Text | Print | Product List | Glossary On
Versions: 1 2 3 4 5 6 7 8 9 10 11 12 13 14 15 16 17 18 19 20 21 22 23 24 25 26 27 28 29 30 31 32 33 34 35 36 37 38 39 40 41 42 43 44 45 46 47 48 49 50
000
FPUS83 KFGF 040910
OPUFGF
PRAIRIE TO PINES WEATHER ROUNDUP
NATIONAL WEATHER SERVICE EASTERN NORTH DAKOTA/GRAND FORKS ND
300 AM CST WED MAR 04 2015

 **SATELLITE DATA USED TO AUGMENT SKY COVER AT AUTOMATED STATIONS**
 *****  WEATHER ACROSS EASTERN NORTH DAKOTA  *****

CITY           SKY/WX    TMP DP  RH WIND       PRES   REMARKS
GRAND FORKS    CLEAR     -6 -13  71 W8        30.06R WCI -21
GRAND FORKS AF CLEAR     -4 -14  62 NW10      30.06R WCI -21
GRAND CITY NWS   N/A     -6 N/A N/A NW6         N/A  WCI -18
BUXTON         NOT AVBL
DEVILS LAKE    CLEAR     -8 -17  65 W13       30.02R WCI -28
FARGO          CLEAR     -3 -11  68 W9        30.09R WCI -19
WAHPETON ARPT  SUNNY     -6 -13  71 W9        30.11R WCI -22
$$

 *****  WEATHER ACROSS CENTRAL AND WESTERN NORTH DAKOTA  *****

CITY           SKY/WX    TMP DP  RH WIND       PRES   REMARKS
JAMESTOWN      LGT SNOW   1  -6  72 NW15      30.05R WCI -18
BISMARCK       PTCLDY     3  -8  60 NW20G35   30.10R WCI -18
MINOT          CLEAR     -6 -14  68 W16       30.09R WCI -28
MINOT AFB      FAIR      -8 -14  72 NW17      30.08R WCI -31
GARRISON         N/A     -6 -12  75 NW15      30.08R WCI -27
WILLISTON      CLEAR     -7 -14  71 NW14      30.17R WCI -28
DICKINSON      CLEAR     -1  -8  72 NW14      30.04R WCI -20
HETTINGER      CLEAR     -4  -9  79 W8        30.06R WCI -19
$$

 *****  OTHER OBSERVATIONS NORTHEAST NORTH DAKOTA  *****

CITY           SKY/WX    TMP DP  RH WIND       PRES   REMARKS
WALHALLA         N/A     -6 -13  71 NW12      30.07R WCI -24
LANGDON        NOT AVBL
CAVALIER       PTSUNNY   -4 -11  71 N13G18    30.06R WCI -23
GRAFTON        NOT AVBL
CANDO          FAIR     -13 -18  77 NW12      30.04R WCI -33
FORT TOTTEN      N/A     -7 -14  70 NW5       29.95  WCI -18
ROLLA          FAIR      -9 -17  70 NW16G23   30.00R WCI -32
RUGBY          FAIR      -9 -17  70 NW15      30.05S WCI -31
 ***** THE ABOVE OBSERVATIONS ARE NON NWS ARE NOT QUALITY
        CONTROLLED AND MAY MIS-REPORT RAIN FOR SNOW...
$$

 *****  OTHER OBSERVATIONS SOUTHEAST NORTH DAKOTA *****

CITY           SKY/WX    TMP DP  RH WIND       PRES   REMARKS
COOPERSTOWN    NOT AVBL
VALLEY CITY    CLOUDY    -4 -11  71 W10       30.05R WCI -21
OAKES            N/A      0  -8  71 W7        30.09S WCI -13
GWINNER        SUNNY      0  -9  65 W8        30.09S WCI -15
BUFFALO        NOT AVBL
WYNDMERE       NOT AVBL
 ***** THE ABOVE OBSERVATIONS ARE NON NWS ARE NOT QUALITY
       CONTROLLED AND MAY MIS-REPORT RAIN FOR SNOW...
$$

  *****  WEATHER ACROSS NORTHERN MINNESOTA  *****

CITY           SKY/WX    TMP DP  RH WIND       PRES   REMARKS
FLAG ISLAND    CLEAR    -11 -18  70 W7        29.93S WCI -26
WARROAD        CLEAR    -11 -18  70 W6        29.95F WCI -25
ROSEAU         CLEAR     -9 -15  77 W7        29.97S WCI -24
HALLOCK        NOT AVBL
THF RVR FALLS  CLEAR     -8 -13  77 W9        29.99S WCI -25
HALSTAD        NOT AVBL
FOSSTON        CLEAR    -11 -15  84 W7        29.99S WCI -26
BAUDETTE       CLEAR    -11 -16  78 SW6       29.93R WCI -25
WASKISH        CLEAR     -9 -13  84 W7        29.94S WCI -24
CROOKSTON      CLEAR     -6 -11  77 NW10      30.05R WCI -23
$$
  *****  WEATHER ACROSS CENTRAL AND WEST MINNESOTA  *****

CITY           SKY/WX    TMP DP  RH WIND       PRES   REMARKS
BEMIDJI        CLEAR     -7 -12  79 W8        29.94F WCI -23
PARK RAPIDS    CLEAR     -9 -15  75 W10       29.97R WCI -27
WADENA         CLEAR     -8 -13  77 W7        30.01S WCI -22
DETROIT LAKES  CLEAR     -2  -8  78 W8        30.01S WCI -17
MOORHEAD       CLEAR      0  -8  71 W8        30.09R WCI -15
FERGUS FALLS   FAIR      -8 -15  71 W8        30.12R WCI -23
ELBOW LAKE     FAIR      -6 -11  79 W9        30.06F WCI -22
MORRIS MN      CLEAR     -6 -11  77 W9        30.08F WCI -22
STAPLES        CLEAR    -11 -17  77 W8        30.01F WCI -28
WHEATON        CLEAR     -6 -11  77 W6        30.13S WCI -18
$$
  *****  WEATHER ELSEWHERE ACROSS MINNESOTA  *****

CITY           SKY/WX    TMP DP  RH WIND       PRES   REMARKS
DULUTH         CLEAR     -4 -11  72 W13       29.89R WCI -23
INTRNTL FALLS  CLEAR     -9 -15  75 W8        29.91R WCI -25
ELY            PTCLDY    -8 -11  84 W7        29.84R FOG     WCI -22
CLOQUET        FAIR      -4 -11  71 W8        29.93R WCI -19
BRAINERD       CLEAR     -3 -11  68 W8        30.01R WCI -18
HIBBING        CLEAR     -6 -13  71 W7        29.90S WCI -20
ALEXANDRIA     CLEAR     -7 -11  83 W9        30.04S WCI -24
SAINT CLOUD    CLEAR     -1  -9  68 W14       30.06R WCI -20
MINNEAPOLIS    PTCLDY     2  -7  66 W8        30.10R WCI -12
$$

  *****  WEATHER ACROSS SOUTH DAKOTA  *****

CITY           SKY/WX    TMP DP  RH WIND       PRES   REMARKS
SIOUX FALLS    CLEAR      2  -3  80 CALM      30.15S
BROOKINGS      NOT AVBL
WATERTOWN      CLEAR     -3 -10  72 W6        30.07F WCI -15
HURON          CLEAR     -4  -7  87 S5        30.15F WCI -15
SISSETON         N/A     -2 -10  69 W10       30.09F WCI -19
ABERDEEN       MOCLDY    -8 -13  78 W6        30.12F WCI -21
MITCHELL       CLEAR      3  -1  83 SW3       30.18S
PIERRE         CLEAR      3  -4  72 SW12      30.11F WCI -13
MOBRIDGE       PTCLDY     3  -3  76 W5        30.04S WCI  -6
RAPID CITY     CLEAR      1  -7  68 W3        30.08R
$$

  *****  SOME WEATHER IN NEARBY STATES *****

CITY           SKY/WX    TMP DP  RH WIND       PRES   REMARKS
GLASGOW MT     CLEAR     -2  -9  72 NW7       30.21R WCI -15
GREAT FALLS MT CLOUDY    10   2  69 SW6       30.17S WCI   0
CHEYENNE WY    LGT SNOW   5   0  79 N7        29.94R WCI  -7
SCOTTSBLUFF NE MOCLDY     8   5  87 NW7       30.09S WCI  -3
OMAHA NE       LGT SNOW  17   9  70 N10       30.20S WCI   5
DES MOINES IA  CLOUDY    16   3  56 NW13      30.16R WCI   2
DAVENPORT IA   PTCLDY    11   2  67 NW17      30.05R WCI  -6
CHICAGO IL     MOCLDY    27  21  78 W16       29.89R WCI  15
EAU CLAIRE WI  CLEAR      4  -7  60 W13       30.02R WCI -13
LA CROSSE WI   CLEAR     10   0  63 NW13      30.04S WCI  -5
$$

  *****  SOME NATIONAL WEATHER *****

CITY           SKY/WX    TMP DP  RH WIND       PRES   REMARKS
LA GUARDIA NY  CLOUDY    36  32  85 SW9       29.74F
RALEIGH NC     FOG       40  38  93 SW10      30.00F VSB 1/8
ATLANTA GA     FOG       51  49  92 SE3       30.04F VSB 1/2
NEW ORLEANS LA MOCLDY    68  65  90 S7        29.96F
OKLAHOMA CITY  CLOUDY    40  30  67 N16G26    29.93R
ALBUQUERQUE NM PTCLDY    37  27  67 W5        29.89R
SALT LAKE CITY MOCLDY    29  22  75 SE7       30.04R WCI  22
LOS ANGELES CA CLEAR     53  45  74 NE7       29.97R
BOISE ID       CLEAR     26  14  60 CALM      30.15R
SEATTLE WA     PTCLDY    36  22  56 SE5       30.27R
$$

*** WEATHER ACROSS MANITOBA...SASKATCHEWAN AND ONTARIO ***
                ***ONTARIO***

CITY           SKY/WX    TMP DP  RH WIND       PRES   REMARKS
GERALDTON      FLURRIES  -4 -13  65 W14G25    29.59R WCI -24
THUNDER BAY    CLEAR     -2 -13  60 W16G24    29.82R WCI -23
SIOUX LOOKOUT  PTCLDY   -13 -22  64 NW14      29.78S WCI -35
TORONTO        CLOUDY    30  23  74 W18       29.72R WCI  18
BIG TROUT LK   PTCLDY   -15 -18  84 N12G18    29.73R WCI -36
PICKLE LAKE    NOT AVBL
DRYDEN         CLEAR    -15 -22  70 W10       29.81S WCI -35
KENORA         PTCLDY   -15 -20  76 W7        29.87S WCI -31
$$
                *** MANITOBA***

CITY           SKY/WX    TMP DP  RH WIND       PRES   REMARKS
BRANDON        CLEAR    -18 -26  69 NW10      30.07R WCI -39
DAUPHIN        MOCLDY   -11 -20  64 W12       30.10R WCI -31
ISLAND LAKE    FLURRIES -17 -22  76 N7        29.95R WCI -33
PILOT MOUND      N/A    -13 -18  77 NW8         N/A  WCI -30
THE PAS        CLEAR    -13 -18  77 NW8       30.16R WCI -30
THOMPSON       CLEAR    -20 -26  76 NW5       30.09R WCI -33
WINNIPEG       FLURRIES -13 -22  64 NW14      30.05R WCI -35
LYNN LAKE      CLEAR    -22 -27  76 W8        30.11S WCI -41
CHURCHILL      CRYSTALS -22 -27  76 NW15      30.04F WCI -48
GILLAM         CLEAR    -20 -27  69 NW7       30.03R WCI -37
$$
                ***SASKATCHEWAN***

CITY           SKY/WX    TMP DP  RH WIND       PRES   REMARKS
ESTEVAN        CLEAR    -15 -22  70 NW17      30.13R WCI -40
KINDERSLEY     PTCLDY   -13 -20  70 NW7       30.24R WCI -29
LLOYDMINSTER   CLEAR    -18 -26  69 W6        30.22R WCI -33
PRINCE ALBERT  CLEAR    -20 -27  69 NW8       30.27R WCI -39
REGINA         CLEAR    -18 -24  76 NW10      30.19R WCI -39
YORKTON        CLEAR    -15 -24  64 NW16      30.12R WCI -39



USA.gov is the U.S. government's official web portal to all federal, state and local government web resources and services.